Location: Maddington
(51.2000°N, 1.9167°W)
Time: 10:05:13
(UTC+00:00)

NOSS 2-2 (E) - Pass Details

Date: 25 January 2021
Orbit: 465 x 1741 km, 63.3° (Epoch: 16 January)

Event Time Altitude Azimuth Distance (km) Brightness Sun altitude
Rises 21:50:42 0° 307° (NW) 3,305 8.0 -46.2°
Reaches altitude 10° 21:53:17 10° 293° (WNW) 2,555 7.2 -46.5°
Enters shadow 21:54:04 13° 287° (WNW) 2,373 7.0 -46.6°
